[[{"header":{"parameterUnit":"m.s-1","parameterCategory":1,"la1":30.2991,"la2":30.254,"lo1":-89.0895,"lo2":-89.0444,"dy":0.0017,"dx":0.0017,"nx":28,"ny":28,"refTime":"2024-07-30T21:00:00:Z","depth":0,"parameterNumber":2,"parameterNumberName":"U-component_of_WINDS"},"data":[0,0,0,0,0,0,0,0,0,0,0,0,0,0,0,0,0,0,0,0,0,0,0,0,0,0,0,0,0,0,0,0,0,0,0,0,0,0,0,0,0,0,0,0,0,0,0,0,0,0,0,0,0,0,0,0,0,0,3.3827,3.3827,0,3.381,3.381,3.381,3.3686,3.3683,3.368,3.3677,3.3663,3.3665,3.3668,0,0,0,0,0,0,0,0,0,0,0,0,0,3.3754,3.3756,3.3827,3.3827,3.3827,3.381,3.381,3.381,3.3686,3.3683,3.3679,3.3676,3.3662,3.3665,3.3668,0,0,0,0,0,0,0,0,0,0,0,0,0,3.3766,3.3756,3.3827,3.3763,3.3757,3.381,3.381,3.381,3.3687,3.3683,3.3678,3.3674,3.3661,3.3665,3.3668,3.3783,0,0,3.3679,3.3681,0,0,0,0,0,0,0,0,3.3766,3.3769,3.3773,3.3768,3.3761,3.3745,3.3779,3.3801,3.3688,3.3714,3.3677,3.3672,3.3694,3.3695,3.3702,3.3782,3.3781,3.368,3.3682,3.3684,3.3685,0,0,0,0,0,0,0,3.3765,3.3769,3.3821,3.3773,3.3766,3.3735,3.3732,3.3782,3.373,3.3711,3.3702,3.3702,3.369,3.3699,3.3701,3.3781,3.368,3.3683,3.3685,3.3687,3.395,3.3954,0,0,0,0,0,0,3.3773,3.3769,3.3821,3.382,3.3752,3.3741,3.3737,3.3755,3.3729,3.3721,3.3706,3.3696,3.3694,3.3696,3.37,3.3828,3.3684,3.3687,3.3689,3.3945,3.3951,3.3956,0,0,0,0,0,0,3.3772,3.3779,3.3822,3.3792,3.3795,3.3747,3.3768,3.3757,3.3765,3.3725,3.3715,3.3724,3.3691,3.3694,3.3762,3.3826,3.3689,3.3692,3.3939,3.3947,3.3953,3.4089,0,0,0,0,0,0,3.377,3.3779,3.3822,3.3794,3.3797,3.3884,3.3772,3.376,3.3772,3.3759,3.3739,3.3732,3.3688,3.3757,3.3765,3.3829,3.3695,3.3933,3.3943,3.3951,3.4079,3.41,3.4118,0,0,0,0,0,3.3768,3.3862,3.3825,3.3832,3.385,3.3888,3.389,3.3837,3.3778,3.382,3.3793,3.3732,3.3818,3.3765,3.3773,3.3839,3.3929,3.394,3.395,3.407,3.4096,3.4118,0,0,0,0,0,0,3.3901,3.3858,3.3815,3.3904,3.39,3.3867,3.3919,3.3867,3.3881,3.3869,3.3803,3.38,3.3876,3.3865,3.3806,3.3946,3.3863,3.3876,3.3951,3.3975,3.3995,3.3995,3.3698,0,0,0,0,0,3.3941,3.3975,3.3935,3.4017,3.4017,3.3969,3.3984,3.3943,3.3937,3.3935,3.3914,3.3912,3.3937,3.3956,3.3978,3.4077,3.4069,3.4126,3.4146,3.4162,3.4174,3.4221,3.4245,3.3991,3.3991,3.3991,0,0,3.4023,3.4003,3.4029,3.4043,3.4036,3.4072,3.3969,3.4013,3.4039,3.3942,3.4003,3.3988,3.398,3.4063,3.4098,3.4055,3.4242,3.4176,3.419,3.4192,3.4235,3.4259,3.4281,3.3998,3.3997,3.3996,0,0,3.4191,3.4181,3.4245,3.4239,3.4228,3.4195,3.4211,3.4185,3.417,3.423,3.4157,3.4188,3.4235,3.4231,3.4236,3.44,3.4343,3.4409,3.4512,3.456,3.4579,3.4597,3.4652,3.4673,3.4421,3.4421,3.4422,0,3.4295,3.4346,3.4286,3.4333,3.434,3.4253,3.4317,3.4315,3.4313,3.432,3.4272,3.4326,3.4316,3.4394,3.4434,3.4442,3.4456,3.441,3.4581,3.4598,3.4613,3.4665,3.4687,3.4429,3.4428,3.4427,3.4427,0,3.4472,3.4509,3.4562,3.4559,3.4573,3.4629,3.4577,3.4598,3.4556,3.4528,3.4588,3.4572,3.4587,3.4603,3.4564,3.4676,3.4649,3.4593,3.4507,3.4646,3.4694,3.4713,3.444,3.4438,3.4435,3.4433,0,0,3.4724,3.4684,3.4705,3.4701,3.4681,3.4709,3.476,3.4773,3.4791,3.4793,3.4833,3.4873,3.4819,3.4825,3.4784,3.4826,3.4952,3.4763,3.4762,3.4796,3.5071,3.5111,3.5135,3.4915,3.4919,3.4921,3.507,0,3.4882,3.4965,3.4911,3.5004,3.5035,3.4952,3.4996,3.4989,3.4964,3.4987,3.4959,3.4987,3.4916,3.4918,3.4956,3.4929,3.5006,3.4918,3.495,3.4952,3.4951,3.5161,3.5204,3.5345,3.5089,3.5092,3.5094,0,3.5077,3.5083,3.5178,3.5149,3.516,3.5201,3.5207,3.5231,3.522,3.5199,3.5203,3.5151,3.5198,3.5115,3.5179,3.512,3.513,3.5119,3.5123,3.5122,3.503,3.5162,3.539,3.541,3.5124,3.5121,3.5119,0,3.5246,3.528,3.5339,3.5339,3.5307,3.5337,3.5326,3.5311,3.5321,3.5327,3.5332,3.5345,3.5351,3.5362,3.5314,3.5259,3.5382,3.5297,3.5364,3.5366,3.5392,3.5391,3.5622,3.5405,3.5404,3.5404,3.5403,0,3.5427,3.5487,3.5414,3.5451,3.5515,3.5453,3.5519,3.5499,3.5485,3.5516,3.5447,3.5477,3.5413,3.5437,3.54,3.5456,3.546,3.5443,3.5432,3.5447,3.5449,3.5451,3.5439,3.5409,3.5408,3.5407,3.5406,0,3.5626,3.558,3.5638,3.5603,3.5595,3.5644,3.5613,3.5646,3.5615,3.5655,3.566,3.5613,3.5637,3.559,3.5609,3.5584,3.5662,3.5637,3.5665,3.5656,3.5725,3.5718,3.5963,3.599,3.5759,3.5762,3.5764,0,3.5743,3.5786,3.5754,3.5769,3.576,3.5786,3.5795,3.5736,3.5748,3.5738,3.5771,3.5789,3.5799,3.5842,3.5809,3.5822,3.5795,3.588,3.5797,3.581,3.5792,3.5789,3.5791,3.5896,3.5899,3.5902,3.5903,0,3.5953,3.5927,3.5942,3.5949,3.5961,3.5964,3.5962,3.5979,3.5915,3.5933,3.5955,3.5964,3.5981,3.5999,3.6004,3.5992,3.5937,3.593,3.5946,3.5961,3.5973,3.5964,3.5708,3.5924,3.5922,3.5921,3.592,3.5919,3.6112,3.6146,3.6127,3.6145,3.6137,3.6136,3.6163,3.6135,3.6152,3.616,3.6125,3.6155,3.6141,3.6141,3.6135,3.6157,3.6119,3.6143,3.6149,3.6155,3.6164,3.5972,3.6159,3.6158,3.6157,3.6157,3.6156,0,3.6316,3.6299,3.6317,3.6314,3.6328,3.6274,3.6269,3.6284,3.6311,3.6302,3.6313,3.6337,3.6354,3.6322,3.6333,3.6357,3.6331,3.6361,3.6357,3.6355,3.6199,3.6183,3.6381,3.6381,3.6381,3.6381,3.6381,3.6381,3.6423,3.6475,3.6447,3.6494,3.6477,3.6504,3.6505,3.6504,3.6496,3.6525,3.6538,3.6516,3.6498,3.6506,3.6518,3.6509,3.6515,3.6553,3.6534,3.6389,3.6366,3.6345,3.6329,3.6555,3.6556,3.6687,3.6688,3.6689]},{"header":{"parameterUnit":"m.s-1","parameterCategory":1,"la1":30.2991,"la2":30.254,"lo1":-89.0895,"lo2":-89.0444,"dy":0.0017,"dx":0.0017,"nx":28,"ny":28,"refTime":"2024-07-30T21:00:00:Z","depth":0,"parameterNumber":3,"parameterNumberName":"V-component_of_WINDS"},"data":[0,0,0,0,0,0,0,0,0,0,0,0,0,0,0,0,0,0,0,0,0,0,0,0,0,0,0,0,0,0,0,0,0,0,0,0,0,0,0,0,0,0,0,0,0,0,0,0,0,0,0,0,0,0,0,0,0,0,2.6183,2.6184,0,2.6286,2.6288,2.6289,2.6292,2.6291,2.6289,2.6288,2.6392,2.6396,2.64,0,0,0,0,0,0,0,0,0,0,0,0,0,2.5985,2.5989,2.6183,2.6184,2.6186,2.6286,2.6288,2.6289,2.6292,2.6291,2.6289,2.6288,2.6391,2.6395,2.64,0,0,0,0,0,0,0,0,0,0,0,0,0,2.6078,2.599,2.6183,2.6199,2.6202,2.6286,2.6288,2.6289,2.6292,2.6291,2.6289,2.6287,2.6389,2.6395,2.6401,2.6475,0,0,2.6419,2.6421,0,0,0,0,0,0,0,0,2.6073,2.6085,2.6196,2.6198,2.6201,2.6274,2.6256,2.6352,2.6293,2.6258,2.6288,2.6286,2.6354,2.6363,2.6386,2.648,2.6484,2.6419,2.6423,2.6425,2.6427,0,0,0,0,0,0,0,2.6066,2.6081,2.6224,2.6197,2.6201,2.62,2.6212,2.6274,2.6315,2.6261,2.6261,2.6274,2.6355,2.6381,2.6389,2.6486,2.6419,2.6424,2.6428,2.643,2.6642,2.6644,0,0,0,0,0,0,2.6057,2.6075,2.6221,2.6227,2.6131,2.6206,2.6218,2.6253,2.6315,2.6322,2.6275,2.6273,2.6372,2.6382,2.6393,2.6482,2.6425,2.6431,2.6434,2.664,2.6643,2.6645,0,0,0,0,0,0,2.6053,2.607,2.6216,2.6151,2.617,2.6211,2.625,2.6256,2.6281,2.6326,2.6333,2.6294,2.637,2.6384,2.6454,2.6485,2.6434,2.6439,2.6638,2.6641,2.6644,2.6662,0,0,0,0,0,0,2.6047,2.6068,2.6098,2.6152,2.6173,2.6277,2.6252,2.6259,2.6291,2.629,2.6345,2.6352,2.637,2.6445,2.646,2.6493,2.6444,2.6635,2.6639,2.6643,2.6659,2.6665,2.6671,0,0,0,0,0,2.604,2.6099,2.6099,2.6117,2.6211,2.6279,2.6291,2.6312,2.6294,2.6323,2.6351,2.635,2.648,2.6452,2.6469,2.6504,2.6633,2.6638,2.6643,2.6656,2.6664,2.6671,0,0,0,0,0,0,2.6047,2.6106,2.6107,2.6186,2.6227,2.6279,2.6317,2.632,2.6367,2.6363,2.6386,2.6398,2.6467,2.6493,2.6461,2.6578,2.6554,2.6563,2.6559,2.6567,2.6573,2.6565,2.6448,0,0,0,0,0,2.6057,2.6108,2.6157,2.6221,2.6242,2.6276,2.6306,2.6318,2.6362,2.638,2.6413,2.6455,2.6505,2.6537,2.6586,2.6662,2.6673,2.6694,2.67,2.6705,2.6712,2.6752,2.6762,2.6661,2.6661,2.666,0,0,2.608,2.6119,2.6149,2.6224,2.6257,2.6308,2.6291,2.6346,2.6384,2.6388,2.6455,2.6481,2.6529,2.6602,2.6636,2.6625,2.6742,2.6711,2.6715,2.6719,2.6758,2.6767,2.6776,2.6664,2.6663,2.6663,0,0,2.6147,2.6182,2.6238,2.6272,2.6323,2.6345,2.6359,2.641,2.6428,2.6496,2.65,2.6544,2.663,2.6664,2.6692,2.677,2.6769,2.6785,2.6816,2.6855,2.6863,2.687,2.6896,2.6906,2.6791,2.6791,2.6791,0,2.6168,2.6246,2.6267,2.6322,2.6354,2.636,2.6416,2.6448,2.6512,2.6533,2.6521,2.6628,2.6661,2.674,2.6759,2.6783,2.6797,2.6778,2.6861,2.6868,2.6875,2.69,2.691,2.6793,2.6793,2.6792,2.6792,0,2.6269,2.6322,2.6362,2.6424,2.646,2.6515,2.6543,2.6577,2.6586,2.6608,2.6677,2.6716,2.6772,2.6792,2.6801,2.6873,2.6864,2.6856,2.6833,2.6886,2.6909,2.6919,2.6795,2.6794,2.6794,2.6793,0,0,2.6343,2.6415,2.6429,2.6456,2.6513,2.6554,2.6609,2.6664,2.6691,2.6735,2.6781,2.6852,2.6845,2.6877,2.6889,2.6924,2.698,2.6911,2.6912,2.6921,2.7059,2.7064,2.7075,2.6981,2.6982,2.6984,2.7055,0,2.6415,2.6514,2.6533,2.6618,2.6667,2.6673,2.672,2.6759,2.6781,2.6825,2.6849,2.6899,2.6886,2.6905,2.6939,2.6966,2.7008,2.6961,2.7021,2.7023,2.7008,2.7088,2.7094,2.7159,2.7064,2.7066,2.7067,0,2.6512,2.6558,2.6648,2.6696,2.6717,2.6759,2.681,2.6853,2.6896,2.6909,2.6944,2.6953,2.7008,2.6983,2.7059,2.7026,2.7052,2.7068,2.7071,2.7077,2.7048,2.7095,2.7181,2.719,2.7082,2.7081,2.708,0,2.6556,2.664,2.6704,2.6727,2.6785,2.6815,2.684,2.6882,2.6913,2.6957,2.6977,2.7027,2.7054,2.7091,2.7112,2.7092,2.7186,2.7163,2.7197,2.7197,2.7216,2.7214,2.7306,2.7235,2.7234,2.7234,2.7234,0,2.6633,2.6687,2.6724,2.6763,2.6823,2.6845,2.6904,2.6928,2.6965,2.7008,2.7016,2.7056,2.7082,2.7125,2.7142,2.7201,2.7213,2.7225,2.7228,2.7224,2.7222,2.724,2.7235,2.7237,2.7236,2.7236,2.7235,0,2.6692,2.6719,2.6788,2.6837,2.6851,2.6893,2.6934,2.6972,2.6993,2.7048,2.7062,2.7096,2.7147,2.7172,2.7235,2.7246,2.7313,2.7314,2.7298,2.7299,2.7332,2.7328,2.7438,2.7452,2.7372,2.7373,2.7373,0,2.6739,2.6781,2.6834,2.6863,2.6889,2.6937,2.6969,2.6991,2.7023,2.7075,2.7106,2.7157,2.72,2.7281,2.7311,2.7359,2.736,2.7395,2.7367,2.7361,2.7359,2.7356,2.7359,2.74,2.7401,2.7401,2.7402,0,2.6819,2.683,2.6876,2.6926,2.6963,2.7003,2.7043,2.7066,2.7095,2.713,2.7183,2.7216,2.728,2.7331,2.738,2.7405,2.7408,2.741,2.7421,2.7416,2.7404,2.7409,2.731,2.7408,2.7407,2.7407,2.7406,2.7406,2.6872,2.6909,2.6952,2.7002,2.7034,2.707,2.7107,2.7134,2.7178,2.7233,2.7243,2.7298,2.7338,2.7406,2.7432,2.7475,2.7466,2.7482,2.7485,2.7489,2.7489,2.7398,2.7484,2.7484,2.7484,2.7484,2.7483,0,2.6952,2.6979,2.7025,2.708,2.7119,2.7118,2.7162,2.7194,2.7243,2.7281,2.7322,2.7381,2.743,2.7463,2.7512,2.7539,2.7541,2.7551,2.7549,2.7554,2.7495,2.748,2.7548,2.7548,2.7548,2.7548,2.7548,2.7548,2.6997,2.7059,2.7074,2.7151,2.7178,2.7233,2.7257,2.729,2.732,2.7386,2.7427,2.7448,2.7484,2.7535,2.7579,2.7587,2.7604,2.7614,2.7621,2.7565,2.7558,2.7552,2.7538,2.7618,2.7618,2.7677,2.7678,2.7678]}]]